H1 CPF 2 NER 2025 10 28 9 301 01 glonass129 H2 1106402 9129 37868 2025 10 28 0 0 0 2025 10 31 23 45 0 900 1 1 0 0 0 1 H9 10 0 60976 0.00000 0 3134412.842 15843026.283 19802094.297 10 0 60976 900.00000 0 1322775.665 14080181.657 21280218.374 10 0 60976 1800.00000 0 -737678.804 12359971.470 22347133.515 10 0 60976 2700.00000 0 -3006666.693 10738268.764 22982098.372 10 0 60976 3600.00000 0 -5433879.848 9263507.154 23172666.184 10 0 60976 4500.00000 0 -7960830.369 7974763.016 22914934.340 10 0 60976 5400.00000 0 -10523045.551 6900240.670 22213635.221 10 0 60976 6300.00000 0 -13052525.199 6056223.321 21082065.490 10 0 60976 7200.00000 0 -15480362.053 5446533.871 19541853.545 10 0 60976 8100.00000 0 -17739418.748 5062528.982 17622567.575 10 0 60976 9000.00000 0 -19766951.494 4883627.997 15361169.424 10 0 60976 9900.00000 0 -21507071.870 4878356.146 12801322.504 10 0 60976 10800.00000 0 -22912943.812 5005859.774 9992564.905 10 0 60976 11700.00000 0 -23948622.978 5217831.160 6989361.901 10 0 60976 12600.00000 0 -24590459.752 5460762.542 3850055.015 10 0 60976 13500.00000 0 -24828004.995 5678434.273 635727.421 10 0 60976 14400.00000 0 -24664378.273 5814531.178 -2590992.083 10 0 60976 15300.00000 0 -24116081.057 5815274.838 -5767162.377 10 0 60976 16200.00000 0 -23212261.215 5631958.107 -8830775.104 10 0 60976 17100.00000 0 -21993458.867 5223271.736 -11721985.335 10 0 60976 18000.00000 0 -20509886.357 4557321.546 -14384301.596 10 0 60976 18900.00000 0 -18819315.453 3613247.775 -16765709.802 10 0 60976 19800.00000 0 -16984662.059 2382375.334 -18819707.125 10 0 60976 20700.00000 0 -15071371.936 868844.190 -20506223.884 10 0 60976 21600.00000 0 -13144719.295 -910308.364 -21792414.237 10 0 60976 22500.00000 0 -11267133.709 -2925617.914 -22653299.605 10 0 60976 23400.00000 0 -9495669.046 -5136196.042 -23072252.147 10 0 60976 24300.00000 0 -7879721.550 -7491223.894 -23041309.317 10 0 60976 25200.00000 0 -6459092.834 -9931872.822 -22561314.252 10 0 60976 26100.00000 0 -5262478.300 -12393570.657 -21641880.497 10 0 60976 27000.00000 0 -4306442.768 -14808517.804 -20301183.262 10 0 60976 27900.00000 0 -3594923.996 -17108347.227 -18565582.845 10 0 60976 28800.00000 0 -3119282.110 -19226816.681 -16469089.207 10 0 60976 29700.00000 0 -2858889.743 -21102420.815 -14052679.643 10 0 60976 30600.00000 0 -2782234.889 -22680814.666 -11363484.233 10 0 60976 31500.00000 0 -2848487.144 -23916948.408 -8453856.085 10 0 60976 32400.00000 0 -3009458.811 -24776825.871 -5380345.408 10 0 60976 33300.00000 0 -3211876.296 -25238815.378 -2202597.913 10 0 60976 34200.00000 0 -3399864.761 -25294460.366 1017800.723 10 0 60976 35100.00000 0 -3517540.714 -24948758.249 4218511.994 10 0 60976 36000.00000 0 -3511603.307 -24219898.023 7337640.751 10 0 60976 36900.00000 0 -3333815.768 -23138469.374 10314918.045 10 0 60976 37800.00000 0 -2943273.411 -21746177.632 13092848.923 10 0 60976 38700.00000 0 -2308363.942 -20094118.856 15617804.436 10 0 60976 39600.00000 0 -1408338.642 -18240686.968 17841038.416 10 0 60976 40500.00000 0 -234429.172 -16249199.451 19719611.168 10 0 60976 41400.00000 0 1209536.701 -14185339.152 21217204.004 10 0 60976 42300.00000 0 2907046.781 -12114516.901 22304810.440 10 0 60976 43200.00000 0 4829348.528 -10099262.625 22961291.939 10 0 60976 44100.00000 0 6936409.098 -8196751.335 23173788.297 10 0 60976 45000.00000 0 9178353.945 -6456565.057 22937974.871 10 0 60976 45900.00000 0 11497327.154 -4918782.306 22258161.310 10 0 60976 46800.00000 0 13829699.318 -3612473.723 21147228.803 10 0 60976 47700.00000 0 16108534.102 -2554666.316 19626405.446 10 0 60976 48600.00000 0 18266213.484 -1749819.897 17724882.005 10 0 60976 49500.00000 0 20237114.291 -1189838.473 15479273.183 10 0 60976 50400.00000 0 21960225.502 -854617.472 12932932.420 10 0 60976 51300.00000 0 23381597.221 -713105.225 10135131.298 10 0 60976 52200.00000 0 24456518.187 -724835.443 7140117.573 10 0 60976 53100.00000 0 25151329.034 -841867.074 4006068.842 10 0 60976 54000.00000 0 25444793.178 -1011050.064 793961.565 10 0 60976 54900.00000 0 25328965.303 -1176520.930 -2433622.498 10 0 60976 55800.00000 0 24809518.542 -1282321.391 -5613728.326 10 0 60976 56700.00000 0 23905514.495 -1275027.313 -8684272.727 10 0 60976 57600.00000 0 22648624.248 -1106274.136 -11585276.313 10 0 60976 58500.00000 0 21081832.409 -735068.904 -14260056.124 10 0 60976 59400.00000 0 19257678.737 -129788.066 -16656353.389 10 0 60976 60300.00000 0 17236112.132 730226.392 -18727372.400 10 0 60976 61200.00000 0 15082048.558 1853542.354 -20432708.401 10 0 60976 62100.00000 0 12862737.294 3236033.923 -21739145.185 10 0 60976 63000.00000 0 10645047.796 4860825.352 -22621306.106 10 0 60976 63900.00000 0 8492792.638 6698785.415 -23062145.664 10 0 60976 64800.00000 0 6464199.802 8709551.304 -23053272.502 10 0 60976 65700.00000 0 4609640.612 10843038.390 -22595098.374 10 0 60976 66600.00000 0 2969708.096 13041371.561 -21696811.427 10 0 60976 67500.00000 0 1573724.940 15241156.064 -20376175.803 10 0 60976 68400.00000 0 438741.526 17375991.758 -18659163.039 10 0 60976 69300.00000 0 -430936.692 19379124.753 -16579424.105 10 0 60976 70200.00000 0 -1043675.792 21186125.120 -14177613.892 10 0 60976 71100.00000 0 -1419900.412 22737478.786 -11500582.697 10 0 60976 72000.00000 0 -1590970.259 23980985.847 -8600451.633 10 0 60976 72900.00000 0 -1597596.368 24873866.130 -5533590.908 10 0 60976 73800.00000 0 -1487866.283 25384485.552 -2359521.407 10 0 60976 74700.00000 0 -1314963.188 25493632.927 860238.714 10 0 60976 75600.00000 0 -1134676.252 25195295.896 4063360.140 10 0 60976 76500.00000 0 -1002807.515 24496905.502 7187898.635 10 0 60976 77400.00000 0 -972584.308 23419040.945 10173479.024 10 0 60976 78300.00000 0 -1092185.468 21994608.165 12962445.143 10 0 60976 79200.00000 0 -1402484.377 20267527.266 15500955.021 10 0 60976 80100.00000 0 -1935102.581 18290983.631 17740001.728 10 0 60976 81000.00000 0 -2710854.791 16125314.959 19636341.981 10 0 60976 81900.00000 0 -3738649.921 13835620.919 21153316.354 10 0 60976 82800.00000 0 -5014894.259 11489193.074 22261546.778 10 0 60976 83700.00000 0 -6523422.491 9152869.739 22939499.168 10 0 60976 84600.00000 0 -8235961.020 6890423.357 23173901.080 10 0 60976 85500.00000 0 -10113106.421 4760086.761 22960006.581 10 0 60977 0.00000 0 -12105780.831 2812319.342 22301702.882 10 0 60977 900.00000 0 -14157107.772 1087903.606 21211455.237 10 0 60977 1800.00000 0 -16204630.637 -383546.901 19710090.540 10 0 60977 2700.00000 0 -18182787.740 -1584609.702 17826420.620 10 0 60977 3600.00000 0 -20025540.371 -2510559.742 15596710.957 10 0 60977 4500.00000 0 -21669046.661 -3169338.888 13064002.452 10 0 60977 5400.00000 0 -23054269.927 -3580988.413 10277297.204 10 0 60977 6300.00000 0 -24129411.968 -3776566.963 7290622.152 10 0 60977 7200.00000 0 -24852068.004 -3796598.447 4161987.485 10 0 60977 8100.00000 0 -25191010.853 -3689114.625 952259.358 10 0 60977 9000.00000 0 -25127526.837 -3507375.038 -2276031.105 10 0 60977 9900.00000 0 -24656244.585 -3307361.446 -5459918.519 10 0 60977 10800.00000 0 -23785419.294 -3145154.269 -8537248.279 10 0 60977 11700.00000 0 -22536658.386 -3074304.322 -11447909.785 10 0 60977 12600.00000 0 -20944098.652 -3143313.765 -14135031.599 10 0 60977 13500.00000 0 -19053068.858 -3393335.825 -16546112.977 10 0 60977 14400.00000 0 -16918294.196 -3856193.503 -18634067.638 10 0 60977 15300.00000 0 -14601718.881 -4552803.611 -20358157.590 10 0 60977 16200.00000 0 -12170039.689 -5492074.790 -21684797.537 10 0 60977 17100.00000 0 -9692055.480 -6670327.447 -22588213.443 10 0 60977 18000.00000 0 -7235945.399 -8071260.764 -23050942.220 10 0 60977 18900.00000 0 -4866590.945 -9666468.208 -23064163.195 10 0 60977 19800.00000 0 -2643054.680 -11416479.334 -22627855.726 10 0 60977 20700.00000 0 -616321.021 -13272283.091 -21750781.123 10 0 60977 21600.00000 0 1172607.259 -15177267.511 -20450290.676 10 0 60977 22500.00000 0 2694178.905 -17069493.135 -18751965.126 10 0 60977 23400.00000 0 3931271.287 -18884203.768 -16689094.241 10 0 60977 24300.00000 0 4879636.850 -20556468.542 -14302008.176 10 0 60977 25200.00000 0 5547803.561 -22023844.249 -11637275.047 10 0 60977 26100.00000 0 5956436.960 -23228946.557 -8746781.556 10 0 60977 27000.00000 0 6137193.978 -24121823.064 -5686715.497 10 0 60977 27900.00000 0 6131119.641 -24662029.949 -2516470.560 10 0 60977 28800.00000 0 5986656.477 -24820326.750 702504.947 10 0 60977 29700.00000 0 5757352.147 -24579920.054 3907893.157 10 0 60977 30600.00000 0 5499362.723 -23937205.823 7037702.943 10 0 60977 31500.00000 0 5268856.970 -22901980.942 10031455.009 10 0 60977 32400.00000 0 5119430.449 -21497116.449 12831334.007 10 0 60977 33300.00000 0 5099637.352 -19757706.874 15383286.848 10 0 60977 34200.00000 0 5250742.649 -17729731.366 17638047.595 10 0 60977 35100.00000 0 5604787.800 -15468281.867 19552070.960 10 0 60977 36000.00000 0 6183050.253 -13035430.904 21088358.132 10 0 60977 36900.00000 0 6994960.806 -10497825.902 22217160.572 10 0 60977 37800.00000 0 8037524.348 -7924107.708 22916549.467 10 0 60977 38700.00000 0 9295269.087 -5382258.076 23172840.698 10 0 60977 39600.00000 0 10740728.062 -2936983.718 22980867.317 10 0 60977 40500.00000 0 12335435.096 -647243.278 22344093.957 10 0 60977 41400.00000 0 14031396.418 1435981.947 21274569.938 10 0 60977 42300.00000 0 15772979.478 3271582.064 19792720.412 10 0 60977 43200.00000 0 17499143.008 4829799.194 17926977.581 10 0 60977 44100.00000 0 19145917.685 6093232.832 15713256.778 10 0 60977 45000.00000 0 20649035.552 7057327.243 13194285.193 10 0 60977 45900.00000 0 21946599.124 7730319.438 10418793.993 10 0 60977 46800.00000 0 22981678.433 8132648.616 7440587.573 10 0 60977 47700.00000 0 23704726.071 8295850.631 4317506.681 10 0 60977 48600.00000 0 24075707.045 8260983.186 1110304.854 10 0 60977 49500.00000 0 24065851.439 8076647.779 -2118539.975 10 0 60977 50400.00000 0 23658953.339 7796692.313 -5306054.787 10 0 60977 51300.00000 0 22852158.459 7477692.573 -8390016.370 10 0 60977 52200.00000 0 21656204.728 7176320.935 -11310185.710 10 0 60977 53100.00000 0 20095103.632 6946716.042 -14009505.592 10 0 60977 54000.00000 0 18205274.370 6837967.451 -16435235.833 10 0 60977 54900.00000 0 16034166.698 6891824.513 -18540001.913 10 0 60977 55800.00000 0 13638430.556 7140728.956 -20282734.725 10 0 60977 56700.00000 0 11081710.182 7606256.528 -21629481.800 10 0 60977 57600.00000 0 8432156.481 8298035.072 -22554073.421 10 0 60977 58500.00000 0 5759763.332 9213185.551 -23038630.392 10 0 60977 59400.00000 0 3133640.605 10336309.776 -23073903.953 10 0 60977 60300.00000 0 619338.841 11640024.854 -22659441.993 10 0 60977 61200.00000 0 -1723662.247 13086020.858 -21803579.557 10 0 60977 62100.00000 0 -3844196.952 14626595.946 -20523255.257 10 0 60977 63000.00000 0 -5701295.957 16206602.919 -18843658.794 10 0 60977 63900.00000 0 -7265631.224 17765724.061 -16797718.052 10 0 60977 64800.00000 0 -8520465.665 19240977.579 -14425437.350 10 0 60977 65700.00000 0 -9462071.024 20569349.618 -11773101.139 10 0 60977 66600.00000 0 -10099599.874 21690441.103 -8892359.861 10 0 60977 67500.00000 0 -10454420.606 22549018.502 -5839216.741 10 0 60977 68400.00000 0 -10558946.515 23097362.224 -2672935.837 10 0 60977 69300.00000 0 -10455011.001 23297315.249 545107.054 10 0 60977 70200.00000 0 -10191859.356 23121947.514 3752608.366 10 0 60977 71100.00000 0 -9823843.030 22556767.876 6887533.069 10 0 60977 72000.00000 0 -9407914.052 21600434.401 9889300.829 10 0 60977 72900.00000 0 -9001024.953 20264934.518 12699940.232 10 0 60977 73800.00000 0 -8657542.816 18575228.340 15265190.172 10 0 60977 74700.00000 0 -8426785.076 16568370.314 17535528.740 10 0 60977 75600.00000 0 -8350779.186 14292145.403 19467111.540 10 0 60977 76500.00000 0 -8462338.946 11803275.488 21022603.094 10 0 60977 77400.00000 0 -8783537.151 9165268.870 22171886.856 10 0 60977 78300.00000 0 -9324638.092 6445999.947 22892641.449 10 0 60977 79200.00000 0 -10083534.818 3715116.954 23170772.846 10 0 60977 80100.00000 0 -11045715.669 1041382.626 23000694.412 10 0 60977 81000.00000 0 -12184763.152 -1509944.439 22385449.096 10 0 60977 81900.00000 0 -13463366.623 -3879581.311 21336670.418 10 0 60977 82800.00000 0 -14834809.097 -6016444.113 19874381.486 10 0 60977 83700.00000 0 -16244868.813 -7879531.876 18026633.917 10 0 60977 84600.00000 0 -17634058.632 -9439392.685 15828991.355 10 0 60977 85500.00000 0 -18940111.596 -10679110.571 13323865.183 10 0 60978 0.00000 0 -20100609.784 -11594770.927 10559713.311 10 0 60978 900.00000 0 -21055647.227 -12195384.127 7590114.108 10 0 60978 1800.00000 0 -21750413.019 -12502268.072 4472735.825 10 0 60978 2700.00000 0 -22137586.630 -12547916.090 1268215.871 10 0 60978 3600.00000 0 -22179440.791 -12374395.894 -1961024.659 10 0 60978 4500.00000 0 -21849561.258 -12031347.569 -5152008.810 10 0 60978 5400.00000 0 -21134107.858 -11573665.699 -8242448.462 10 0 60978 6300.00000 0 -20032560.740 -11058964.967 -11171979.805 10 0 60978 7200.00000 0 -18557917.789 -10544938.422 -13883363.309 10 0 60978 8100.00000 0 -16736332.947 -10086722.606 -16323622.563 10 0 60978 9000.00000 0 -14606209.428 -9734383.615 -18445097.679 10 0 60978 9900.00000 0 -12216785.520 -9530632.981 -20206390.839 10 0 60978 10800.00000 0 -9626272.682 -9508872.128 -21573184.247 10 0 60978 11700.00000 0 -6899624.836 -9691649.698 -22518913.720 10 0 60978 12600.00000 0 -4106033.525 -10089597.849 -23025284.517 10 0 60978 13500.00000 0 -1316254.991 -10700892.685 -23082619.704 10 0 60978 14400.00000 0 1400118.064 -11511261.111 -22690035.035 10 0 60978 15300.00000 0 3977325.421 -12494532.800 -21855438.122 10 0 60978 16200.00000 0 6355937.559 -13613712.572 -20595353.331 10 0 60978 17100.00000 0 8485079.631 -14822526.370 -18934577.425 10 0 60978 18000.00000 0 10324289.780 -16067374.047 -16905674.258 10 0 60978 18900.00000 0 11844936.435 -17289605.273 -14548319.968 10 0 60978 19800.00000 0 13031138.138 -18428021.631 -11908512.816 10 0 60978 20700.00000 0 13880150.655 -19421498.882 -9037664.333 10 0 60978 21600.00000 0 14402208.544 -20211618.918 -5991590.413 10 0 60978 22500.00000 0 14619831.194 -20745201.030 -2829422.655 10 0 60978 23400.00000 0 14566625.479 -20976626.853 387538.496 10 0 60978 24300.00000 0 14285637.854 -20869862.472 3597006.583 10 0 60978 25200.00000 0 13827326.969 -20400094.155 6736905.376 10 0 60978 26100.00000 0 13247243.137 -19554910.475 9746556.053 10 0 60978 27000.00000 0 12603512.480 -18334982.534 12567833.477 10 0 60978 27900.00000 0 11954231.095 -16754214.692 15146270.625 10 0 60978 28800.00000 0 11354877.720 -14839359.874 17432091.434 10 0 60978 29700.00000 0 10855852.148 -12629115.217 19381153.929 10 0 60978 30600.00000 0 10500241.172 -10172734.781 20955787.177 10 0 60978 31500.00000 0 10321904.333 -7528215.411 22125507.521 10 0 60978 32400.00000 0 10343958.640 -4760128.932 22867601.593 10 0 60978 33300.00000 0 10577725.242 -1937187.992 23167565.721 10 0 60978 34200.00000 0 11022182.385 870356.251 23019393.548 10 0 60978 35100.00000 0 11663948.505 3593379.515 22425706.025 10 0 60978 36000.00000 0 12477797.833 6166504.854 21397720.309 10 0 60978 36900.00000 0 13427689.159 8530571.424 19955056.668 10 0 60978 37800.00000 0 14468267.168 10634850.445 18125385.136 10 0 60978 38700.00000 0 15546776.019 12438916.794 15943916.456 10 0 60978 39600.00000 0 16605307.163 13914098.146 13452744.794 10 0 60978 40500.00000 0 17583288.745 15044440.442 10700052.677 10 0 60978 41400.00000 0 18420112.902 15827148.087 7739191.606 10 0 60978 42300.00000 0 19057790.377 16272478.980 4627654.816 10 0 60978 43200.00000 0 19443519.692 16403097.403 1425961.338 10 0 60978 44100.00000 0 19532060.746 16252910.911 -1803526.975 10 0 60978 45000.00000 0 19287810.133 15865439.677 -4997831.745 10 0 60978 45900.00000 0 18686487.678 15291787.224 -8094602.479 10 0 60978 46800.00000 0 17716359.890 14588299.135 -11033353.060 10 0 60978 47700.00000 0 16378945.796 13814010.188 -13756664.020 10 0 60978 48600.00000 0 14689172.928 13027989.991 -16211324.948 10 0 60978 49500.00000 0 12674975.061 12286701.651 -18349392.623 10 0 60978 50400.00000 0 10376347.557 11641487.649 -20129142.379 10 0 60978 51300.00000 0 7843899.722 11136291.317 -21515892.781 10 0 60978 52200.00000 0 5136965.251 10805711.939 -22482686.697 10 0 60978 53100.00000 0 2321350.830 10673476.658 -23010815.174 10 0 60978 54000.00000 0 -533181.806 10751394.075 -23090174.225 10 0 60978 54900.00000 0 -3355594.000 11038833.223 -22719448.320 10 0 60978 55800.00000 0 -6076295.788 11522748.889 -21906118.159 10 0 60978 56700.00000 0 -8629804.839 12178250.592 -20666294.008 10 0 60978 57600.00000 0 -10957228.077 12969689.352 -19024379.429 10 0 60978 58500.00000 0 -13008463.346 13852214.407 -17012573.587 10 0 60978 59400.00000 0 -14744030.952 14773732.368 -14670223.401 10 0 60978 60300.00000 0 -16136460.907 15677184.605 -12043039.590 10 0 60978 61200.00000 0 -17171180.744 16503045.661 -9182193.142 10 0 60978 62100.00000 0 -17846869.953 17191936.755 -6143310.766 10 0 60978 63000.00000 0 -18175269.443 17687244.118 -2985389.571 10 0 60978 63900.00000 0 -18180457.149 17937632.286 230347.566 10 0 60978 64800.00000 0 -17897622.918 17899347.404 3441633.659 10 0 60978 65700.00000 0 -17371396.271 17538214.777 6586353.803 10 0 60978 66600.00000 0 -16653798.735 16831248.058 9603733.357 10 0 60978 67500.00000 0 -15801907.407 15767803.683 12435496.256 10 0 60978 68400.00000 0 -14875327.786 14350233.172 15026972.436 10 0 60978 69300.00000 0 -13933581.166 12594006.455 17328134.596 10 0 60978 70200.00000 0 -13033514.893 10527301.002 19294546.050 10 0 60978 71100.00000 0 -12226842.447 8190073.089 20888203.171 10 0 60978 72000.00000 0 -11557914.725 5632648.412 22078257.763 10 0 60978 72900.00000 0 -11061814.372 2913888.546 22841606.765 10 0 60978 73800.00000 0 -10762851.800 99006.751 23163338.828 10 0 60978 74700.00000 0 -10673525.396 -2742879.122 23037029.443 10 0 60978 75600.00000 0 -10793989.621 -5541358.143 22464878.676 10 0 60978 76500.00000 0 -11112054.225 -8227396.743 21457687.937 10 0 60978 77400.00000 0 -11603716.208 -10735959.627 20034674.739 10 0 60978 78300.00000 0 -12234204.305 -13008474.118 18223127.070 10 0 60978 79200.00000 0 -12959494.500 -14995036.490 16057901.776 10 0 60978 80100.00000 0 -13728235.173 -16656268.606 13580774.292 10 0 60978 81000.00000 0 -14484002.838 -17964746.907 10839650.030 10 0 60978 81900.00000 0 -15167794.829 -18905942.910 7887650.737 10 0 60978 82800.00000 0 -15720654.314 -19478634.295 4782092.125 10 0 60978 83700.00000 0 -16086316.471 -19694767.733 1583371.831 10 0 60978 84600.00000 0 -16213762.695 -19578777.767 -1646210.786 10 0 60978 85500.00000 0 -16059572.774 -19166389.369 -4843679.339 10 0 60979 0.00000 0 -15589972.871 -18502954.340 -7946624.235 10 0 60979 900.00000 0 -14782489.410 -17641391.644 -10894441.213 10 0 60979 1800.00000 0 -13627136.555 -16639820.631 -13629534.177 10 0 60979 2700.00000 0 -12127083.520 -15558987.598 -16098462.191 10 0 60979 3600.00000 0 -10298771.777 -14459597.343 -18253001.955 10 0 60979 4500.00000 0 -8171475.458 -13399664.359 -20051104.854 10 0 60979 5400.00000 0 -5786322.547 -12431997.761 -21457728.252 10 0 60979 6300.00000 0 -3194817.837 -11601927.901 -22445523.938 10 0 60979 7200.00000 0 -456930.040 -10945371.812 -22995370.011 10 0 60979 8100.00000 0 2361175.988 -10487319.569 -23096736.074 10 0 60979 9000.00000 0 5189666.073 -10240805.097 -22747875.358 10 0 60979 9900.00000 0 7957716.014 -10206403.788 -21955841.175 10 0 60979 10800.00000 0 10596230.860 -10372276.431 -20736328.750 10 0 60979 11700.00000 0 13040490.529 -10714755.508 -19113347.112 10 0 60979 12600.00000 0 15232611.785 -11199446.798 -17118729.039 10 0 60979 13500.00000 0 17123725.001 -11782797.492 -14791490.211 10 0 60979 14400.00000 0 18675776.596 -12414062.550 -12177051.463 10 0 60979 15300.00000 0 19862884.219 -13037584.601 -9326340.595 10 0 60979 16200.00000 0 20672190.829 -13595289.975 -6294792.226 10 0 60979 17100.00000 0 21104184.988 -14029294.931 -3141265.836 10 0 60979 18000.00000 0 21172476.984 -14284512.089 73096.522 10 0 60979 18900.00000 0 20903042.994 -14311147.693 3286050.642 10 0 60979 19800.00000 0 20332971.377 -14066985.364 6435446.178 10 0 60979 20700.00000 0 19508765.414 -13519361.382 9460415.743 10 0 60979 21600.00000 0 18484274.760 -12646749.636 12302535.156 10 0 60979 22500.00000 0 17318342.556 -11439890.745 14906933.814 10 0 60979 23400.00000 0 16072266.391 -9902418.680 17223335.324 10 0 60979 24300.00000 0 14807178.339 -8050958.799 19207010.069 10 0 60979 25200.00000 0 13581452.188 -5914692.660 20819623.137 10 0 60979 26100.00000 0 12448244.533 -3534406.523 22029962.831 10 0 60979 27000.00000 0 11453270.762 -961061.213 22814537.088 10 0 60979 27900.00000 0 10632907.337 1746059.735 23158027.220 10 0 60979 28800.00000 0 10012698.615 4521549.630 23053590.557 10 0 60979 29700.00000 0 9606330.142 7296337.722 22503005.951 10 0 60979 30600.00000 0 9415111.614 10000308.853 21516658.419 10 0 60979 31500.00000 0 9427992.049 12564977.582 20113361.783 10 0 60979 32400.00000 0 9622108.037 14926107.904 18320020.783 10 0 60979 33300.00000 0 9963843.992 17026171.016 16171136.916 10 0 60979 34200.00000 0 10410361.898 18816539.375 13708165.204 10 0 60979 35100.00000 0 10911538.113 20259325.265 10978732.049 10 0 60979 36000.00000 0 11412227.136 21328786.108 8035727.329 10 0 60979 36900.00000 0 11854757.650 22012236.145 4936286.932 10 0 60979 37800.00000 0 12181555.434 22310424.476 1740684.634 10 0 60979 38700.00000 0 12337781.366 22237361.799 -1488845.272 10 0 60979 39600.00000 0 12273871.171 21819601.631 -4689331.024 10 0 60979 40500.00000 0 11947867.006 21095005.335 -7798307.075 10 0 60979 41400.00000 0 11327439.279 20111042.733 -10755052.407 10 0 60979 42300.00000 0 10391510.066 18922700.470 -13501797.214 10 0 60979 43200.00000 0 9131406.486 17590087.563 -15984872.193 10 0 60979 44100.00000 0 7551492.650 16175840.883 -18155775.911 10 0 60979 45000.00000 0 5669251.481 14742442.107 -19972137.550 10 0 60979 45900.00000 0 3514811.563 13349561.374 -21398554.802 10 0 60979 46800.00000 0 1129938.255 12051541.520 -22407289.723 10 0 60979 47700.00000 0 -1433468.516 10895130.260 -22978808.584 10 0 60979 48600.00000 0 -4115306.283 9917556.576 -23102155.450 10 0 60979 49500.00000 0 -6849550.123 9145032.190 -22775152.894 10 0 60979 50400.00000 0 -9566784.438 8591740.365 -22004427.060 10 0 60979 51300.00000 0 -12196879.827 8259352.949 -20805257.963 10 0 60979 52200.00000 0 -14671702.751 8137093.819 -19201259.519 10 0 60979 53100.00000 0 -16927744.853 8202343.474 -17223897.162 10 0 60979 54000.00000 0 -18908562.771 8421756.551 -14911854.034 10 0 60979 54900.00000 0 -20566927.802 8752842.568 -12310259.524 10 0 60979 55800.00000 0 -21866597.439 9145940.864 -9469796.496 10 0 60979 56700.00000 0 -22783637.046 9546504.585 -6445705.588 10 0 60979 57600.00000 0 -23307239.112 9897596.102 -3296706.670 10 0 60979 58500.00000 0 -23440008.559 10142487.909 -83858.901 10 0 60979 59400.00000 0 -23197704.940 10227259.317 3130618.458 10 0 60979 60300.00000 0 -22608454.760 10103279.953 6284541.899 10 0 60979 61200.00000 0 -21711468.867 9729476.366 9316953.678 10 0 60979 62100.00000 0 -20555319.979 9074287.441 12169284.006 10 0 60979 63000.00000 0 -19195853.017 8117227.521 14786464.333 10 0 60979 63900.00000 0 -17693815.572 6849992.474 17117971.788 10 0 60979 64800.00000 0 -16112306.720 5277062.770 19118786.398 10 0 60979 65700.00000 0 -14514149.373 3415778.107 20750244.420 10 0 60979 66600.00000 0 -12959294.122 1295879.574 21980772.912 10 0 60979 67500.00000 0 -11502360.962 -1041463.204 22786492.794 10 0 60979 68400.00000 0 -10190419.583 -3545101.778 23151679.700 10 0 60979 69300.00000 0 -9061099.308 -6155777.955 23069074.110 10 0 60979 70200.00000 0 -8141106.475 -8808337.719 22540034.575 10 0 60979 71100.00000 0 -7445210.757 -11434201.247 21574530.227 10 0 60979 72000.00000 0 -6975743.065 -13963989.351 20190971.288 10 0 60979 72900.00000 0 -6722626.929 -16330199.673 18415878.902 10 0 60979 73800.00000 0 -6663943.464 -18469823.115 16283398.450 10 0 60979 74700.00000 0 -6767007.929 -20326792.451 13834663.362 10 0 60979 75600.00000 0 -6989914.371 -21854161.058 11117019.460 10 0 60979 76500.00000 0 -7283484.840 -23015919.983 8183122.846 10 0 60979 77400.00000 0 -7593541.988 -23788375.823 5089927.376 10 0 60979 78300.00000 0 -7863409.391 -24161029.765 1897580.489 10 0 60979 79200.00000 0 -8036533.390 -24136918.817 -1331751.294 10 0 60979 80100.00000 0 -8059114.122 -23732402.964 -4535103.744 10 0 60979 81000.00000 0 -7882632.266 -22976405.676 -7649958.178 10 0 60979 81900.00000 0 -7466161.799 -21909138.904 -10615480.623 10 0 60979 82800.00000 0 -6778367.820 -20580366.134 -13373730.603 10 0 60979 83700.00000 0 -5799101.843 -19047277.369 -15870813.782 10 0 60979 84600.00000 0 -4520524.257 -17372066.838 -18057953.828 10 0 60979 85500.00000 0 -2947704.137 -15619317.296 -19892460.716 99